TANDEM-X

Last updated on Fri Jun 19 2026 20:04:01 GMT+0000 (Coordinated Universal Time)

1 36605U 10030A 26170.49711645 .00000194 00000+0 12414-4 0 9996 2 36605 97.4451 178.1721 0001891 87.7400 272.4051 15.19151444886990
UTC large
Height (km)
Speed (km/s)
/
Latitude / Longitude
Inclination (degrees)
Orbital Period (minutes)
Azimuth
Elevation
Range (km)
Doppler Factor

Next 0 passes for location: London (51.5072 / 0.1276)

No passes found over London.
TANDEM-X